Location: Daytona Beach
(29.2106°N, 81.0231°W)
Time: 16:13:28
(UTC-04:00)

X-37B - Pass Details

Date: 22 June 2021
Orbit: 383 x 392 km, 45.0° (Epoch: 01 July)

Event Time Altitude Azimuth Distance (km) Brightness Sun altitude
Rises 21:58:49 0° 245° (WSW) 2,245 4.8 -17.5°
Reaches altitude 10° 22:00:56 10° 252° (WSW) 1,394 3.8 -17.8°
Maximum altitude 22:03:57 43° 326° (NW) 544 1.8 -18.3°
Drops below altitude 10° 22:06:58 10° 40° (NE) 1,397 3.4 -18.8°
Enters shadow 22:08:38 - 46° (NE) 2,063 4.2 -19.1°
